{"data":{"norad_id":45358,"intl_designator":"2020-018A","name":"COSMOS 2545 (760)","alt_names":[],"object_type":"PAYLOAD","status":"ACTIVE","operator":null,"country":"CIS","launch_date":"2020-03-16","launch_site_code":"PLMSC","launch_vehicle":null,"mission":null,"orbit_class":"UNKNOWN","rcs_meters":null,"size_class":null,"mass_kg":null,"dimensions":null,"purposes":["nav"],"wikipedia_slug":null,"has_3d_model":false,"image_url":null,"decayed_at":null,"tle_current":{"epoch":"2026-05-24T18:16:27.062976Z","epoch_age_seconds":98830,"freshness":"FRESH","line1":"1 45358U 20018A   26144.76142434 -.00000050  00000+0  00000+0 0  9998","line2":"2 45358  64.3701 313.2419 0007534 232.9765 126.9500  2.13102336 48167","mean_motion":2.13102336,"eccentricity":0.0007534,"inclination_deg":64.3701,"raan_deg":313.2419,"arg_perigee_deg":232.9765,"mean_anomaly_deg":126.95,"bstar":0,"rev_number":4816,"period_min":675.73168226556,"perigee_km":19110.642889663,"apogee_km":19149.078340469,"semimajor_km":25507.997615066,"source":"CELESTRAK","updated_at":"2026-05-25T13:38:23.896052Z"}}}